WetterOnline ( https://www.wetteronline.de )

Wetter aktuell Freiburg

Aktuelles Wetter: Freiburg/Flugplatz (236m)

6-stündlich | Neueste Meldungen
Ortszeit Temperatur Wetter
Mi, 03.03. 19:00 12.4° C bedeckt
Mi, 03.03. 13:00 13.5° C bedeckt
Mi, 03.03. 7:00 3.1° C bedeckt
Mi, 03.03. 1:00 3.8° C wolkig
Di, 02.03. 19:00 9.7° C leicht bewölkt
Di, 02.03. 13:00 13.9° C wolkenlos
Di, 02.03. 7:00 -0.6° C wolkenlos
Di, 02.03. 1:00 1.5° C wolkenlos
Ortszeit Temperatur Wetter
Mi, 03.03. 23:00 7.8° C bedeckt
Mi, 03.03. 22:30 8.0° C bedeckt
Mi, 03.03. 22:20 8.0° C bedeckt
Mi, 03.03. 22:10 8.1° C bedeckt
Mi, 03.03. 22:00 8.4° C bedeckt
Mi, 03.03. 21:50 8.4° C bedeckt
Mi, 03.03. 21:30 9.1° C bedeckt
Mi, 03.03. 21:00 9.1° C bedeckt
Mi, 03.03. 20:30 10.0° C bedeckt
Mi, 03.03. 20:00 10.1° C bedeckt
Mi, 03.03. 19:30 11.8° C bedeckt
Ortszeit Relative Feuchte Sichtweite
Mi, 03.03. 19:00 40% 30 km
Mi, 03.03. 13:00 51% 26 km
Mi, 03.03. 7:00 87% 10 km
Mi, 03.03. 1:00 84% 10 km
Di, 02.03. 19:00 59% 19 km
Di, 02.03. 13:00 42% 30 km
Di, 02.03. 7:00 91% 11 km
Di, 02.03. 1:00 88% 10 km
Ortszeit Relative Feuchte Sichtweite
Mi, 03.03. 23:00 63% 30 km
Mi, 03.03. 22:30 62% 35 km
Mi, 03.03. 22:20 62% -
Mi, 03.03. 22:10 60% -
Mi, 03.03. 22:00 65% 24 km
Mi, 03.03. 21:50 65% -
Mi, 03.03. 21:30 56% 26 km
Mi, 03.03. 21:00 56% 30 km
Mi, 03.03. 20:30 50% 10 km
Mi, 03.03. 20:00 51% 10 km
Mi, 03.03. 19:30 41% 35 km
Ortszeit Niederschlagsmenge Niederschlagsart
Mi, 03.03. 19:00 0.0 l/m2 in 12 Std. -
Mi, 03.03. 13:00 0.0 l/m2 in 6 Std. -
Mi, 03.03. 7:00 0.0 l/m2 in 12 Std. -
Mi, 03.03. 1:00 0.0 l/m2 in 6 Std. -
Di, 02.03. 19:00 0.0 l/m2 in 12 Std. -
Di, 02.03. 13:00 0.0 l/m2 in 6 Std. -
Di, 02.03. 7:00 0.0 l/m2 in 12 Std. -
Di, 02.03. 1:00 0.0 l/m2 in 6 Std. -
Ortszeit Niederschlagsmenge Niederschlagsart
Mi, 03.03. 23:00 keine Meldung -
Mi, 03.03. 22:30 0.0 l/m2 in 1 Std. -
Mi, 03.03. 22:20 keine Meldung -
Mi, 03.03. 22:10 keine Meldung -
Mi, 03.03. 22:00 0.0 l/m2 in 1 Std. -
Mi, 03.03. 21:50 keine Meldung -
Mi, 03.03. 21:30 0.0 l/m2 in 1 Std. -
Mi, 03.03. 21:00 0.0 l/m2 in 1 Std. -
Mi, 03.03. 20:30 0.0 l/m2 in 1 Std. -
Mi, 03.03. 20:00 0.0 l/m2 in 1 Std. -
Mi, 03.03. 19:30 0.0 l/m2 in 1 Std. -
Ortszeit Stärke Spitze Richtung
km/h Bft. km/h Grad Sektor
Mi, 03.03. 19:00 6 1 24 220° SW
Mi, 03.03. 13:00 6 1 11 250° W
Mi, 03.03. 7:00 0 0 7 - -
Mi, 03.03. 1:00 0 0 7 - -
Di, 02.03. 19:00 4 1 14 50° NO
Di, 02.03. 13:00 7 2 11 310° NW
Di, 02.03. 7:00 2 1 6 200° S
Di, 02.03. 1:00 4 1 7 210° SW
Ortszeit Stärke Spitze Richtung
km/h Bft. km/h Grad Sektor
Mi, 03.03. 23:00 2 1 6 30° NO
Mi, 03.03. 22:30 2 1 6 30° NO
Mi, 03.03. 22:20 2 1 - 30° NO
Mi, 03.03. 22:10 4 1 - 350° N
Mi, 03.03. 22:00 0 0 7 - -
Mi, 03.03. 21:50 0 0 - 80° O
Mi, 03.03. 21:30 4 1 4 360° N
Mi, 03.03. 21:00 4 1 4 360° N
Mi, 03.03. 20:30 2 1 6 360° N
Mi, 03.03. 20:00 4 1 11 40° NO
Mi, 03.03. 19:30 4 1 11 250° W
Ortszeit Untergrenze Bedeckung Gattung
total tief tief mittel hoch
Mi, 03.03. 19:00 3300 m 8/8 8/8 - - -
Mi, 03.03. 13:00 4500 m 8/8 8/8 - - -
Mi, 03.03. 7:00 5400 m 8/8 8/8 - - -
Mi, 03.03. 1:00 7800 m 8/8 0/8 - - -
Di, 02.03. 19:00 9000 m 5/8 0/8 - - -
Di, 02.03. 13:00 - 0/8 0/8 - - -
Di, 02.03. 7:00 - 0/8 0/8 - - -
Di, 02.03. 1:00 - 0/8 0/8 - - -
Ortszeit Bedeckungsgrad in Achtel und Wolkenuntergrenze
Mi, 03.03. 23:00 8(2700m)
Mi, 03.03. 22:30 8(3000m)
Mi, 03.03. 22:20 8(3000m)
Mi, 03.03. 22:10 8(3000m)
Mi, 03.03. 22:00 8(3000m)
Mi, 03.03. 21:50 8(3000m)
Mi, 03.03. 21:30 8(3000m)
Mi, 03.03. 21:00 8(3000m)
Mi, 03.03. 20:30 8(3300m)
Mi, 03.03. 20:00 8(3300m) 8(4200m)
Mi, 03.03. 19:30 8(3000m) 8(4200m) 8(4800m)
Ortszeit Luftdruck NN (hPa) Tendenz (hPa in 3 Std.)
Mi, 03.03. 19:00 1028 - 0,6
Mi, 03.03. 13:00 1030 - 1,0
Mi, 03.03. 7:00 1032 + 0,1
Mi, 03.03. 1:00 1032 0,0
Di, 02.03. 19:00 1031 + 0,4
Di, 02.03. 13:00 1031 - 0,4
Di, 02.03. 7:00 1032 + 0,6
Di, 02.03. 1:00 1032 + 0,3
Ortszeit Luftdruck NN (hPa) Tendenz (hPa in 3 Std.)
Mi, 03.03. 23:00 1027 - 1,1
Mi, 03.03. 22:30 1027 - 1,1
Mi, 03.03. 22:20 1027 keine Meldung
Mi, 03.03. 22:10 1027 keine Meldung
Mi, 03.03. 22:00 1027 - 0,9
Mi, 03.03. 21:50 1027 keine Meldung
Mi, 03.03. 21:30 1027 - 0,7
Mi, 03.03. 21:00 1028 - 0,4
Mi, 03.03. 20:30 1028 - 0,4
Mi, 03.03. 20:00 1028 - 0,3
Mi, 03.03. 19:30 1028 - 0,4
Ortszeit Schneehöhe (cm)
Mi, 03.03. 19:00 0
Mi, 03.03. 13:00 0
Mi, 03.03. 7:00 0
Mi, 03.03. 1:00 0
Di, 02.03. 19:00 0
Di, 02.03. 13:00 0
Di, 02.03. 7:00 0
Di, 02.03. 1:00 0
Ortszeit Schneehöhe (cm)
Mi, 03.03. 23:00 -
Mi, 03.03. 22:30 0
Mi, 03.03. 22:20 0
Mi, 03.03. 22:10 0
Mi, 03.03. 22:00 0
Mi, 03.03. 21:50 0
Mi, 03.03. 21:30 0
Mi, 03.03. 21:00 0
Mi, 03.03. 20:30 0
Mi, 03.03. 20:00 0
Mi, 03.03. 19:30 0
Link zu dieser Seite / Seite empfehlen

Das Wetter in ...